Find Starlink 1502

NORAD ID: 45764 Int'l Des: 2020-038 Owner: SPXS Country: US Constellation: starlink operational
LEOCIRCULAR

Live Position

Loading 3D Globe...

About Starlink 1502

Description loading...

Upcoming Passes

Passes for default location (London). Set your location on the main map for personalized predictions.

Altitude History

Loading altitude history...

Two-Line Element Set

1 45764U 20038AL 26125.75257889 .00086290 00000-0 11941-2 0 9999
2 45764 53.0475 291.5255 0005757 220.2612 139.7973 15.56390895325493
Epoch: May 5, 2026 • Age: 9 hours

Current Status

Altitude 402.9 km
Velocity 7.67 km/s
Sub-Earth Point 26.13°N, 35.38°E
Launch Date Jun 13, 2020
Age 5.8 years
Type internet

Technical Details

Classification Payload
Mass 260.00 kg
Dry Mass 248.00 kg
Total Mass 260.00 kg
Length 0.20 m
Diameter 2.80 m
Span 9.00 m
Shape Box + pan
Manufacturer SPXS
Bus Type Starlink
Phase Status In Orbit
Owner/State SPXS/US

Most Searched